KE2GQQ Weather Reports


Display with metric or nautical units.
time (UTC)temp
F
wind
direction
speed
MPH
gust
MPH
rain 1hr
in
rain 24hr
in
rain mn
in
humidity
%
barometer
mb
20260503050017 50 194 1.0 3.0 0.00 0.01 0.00 54 1011.0
20260503045017 51 188 0.0 3.0 0.00 0.01 0.00 58 1010.9
20260503044018 51 115 0.0 2.0 0.00 0.01 0.00 57 1010.9
20260503043018 51 181 1.0 3.0 0.00 0.01 0.00 56 1011.0
20260503042018 51 160 1.0 3.0 0.00 0.01 0.00 57 1011.0
20260503041018 51 187 1.0 3.0 0.00 0.01 0.00 56 1011.1
20260503040018 51 167 1.0 3.0 0.00 0.01 0.00 58 1011.1
20260503035038 50 170 1.0 3.0 0.00 0.01 0.01 62 1010.9
20260503034016 50 136 0.0 2.0 0.00 0.01 0.01 66 1010.9
20260503033056 50 131 0.0 1.0 0.00 0.01 0.01 65 1010.8
20260503032016 51 211 0.0 1.0 0.00 0.01 0.01 64 1010.8
20260503031016 51 179 0.0 2.0 0.00 0.01 0.01 62 1010.8
20260503030016 51 164 0.0 2.0 0.00 0.01 0.01 61 1010.9
20260503025016 52 200 0.0 1.0 0.00 0.01 0.01 60 1010.8
20260503024016 52 112 0.0 2.0 0.00 0.01 0.01 59 1010.8
20260503023036 52 157 1.0 3.0 0.00 0.01 0.01 59 1010.9
20260503022017 52 203 1.0 2.0 0.00 0.01 0.01 57 1011.0
20260503021017 52 170 1.0 2.0 0.00 0.01 0.01 57 1011.0
20260503020017 52 164 0.0 2.0 0.00 0.01 0.01 57 1011.1
20260503015017 52 182 1.0 2.0 0.00 0.01 0.01 59 1011.0
20260503014017 52 154 0.0 2.0 0.00 0.01 0.01 60 1011.0
20260503013017 52 163 0.0 1.0 0.00 0.01 0.01 59 1011.0
20260503012018 53 56 0.0 1.0 0.00 0.01 0.01 57 1010.9
20260503011018 53 170 0.0 3.0 0.00 0.01 0.01 57 1010.8
20260503010018 53 177 0.0 2.0 0.00 0.01 0.01 54 1010.7
20260503005038 53 57 0.0 2.0 0.00 0.01 0.01 55 1010.6
20260503004015 53 155 1.0 4.0 0.00 0.01 0.01 56 1010.4
20260503003018 53 92 0.0 2.0 0.00 0.01 0.01 62 1010.5
20260503002015 53 261 1.0 3.0 0.00 0.01 0.01 65 1010.4
20260503001015 53 133 0.0 1.0 0.00 0.01 0.01 67 1010.3
20260503000016 54 119 0.0 2.0 0.00 0.01 0.01 66 1010.3
20260502235056 55 37 0.0 2.0 0.00 0.01 0.01 66 1010.2
20260502234016 56 66 0.0 1.0 0.00 0.01 0.01 62 1010.1
20260502233016 57 125 0.0 1.0 0.00 0.01 0.01 60 1010.0
20260502232036 58 169 0.0 2.0 0.00 0.01 0.01 55 1010.0
20260502231016 59 329 0.0 1.0 0.00 0.01 0.01 54 1009.9
20260502230016 60 254 0.0 1.0 0.00 0.01 0.01 50 1009.8
20260502225037 60 246 0.0 2.0 0.00 0.01 0.01 47 1009.7
20260502224017 61 314 1.0 2.0 0.00 0.01 0.01 46 1009.7
20260502223017 61 199 0.0 2.0 0.00 0.01 0.01 46 1009.7
20260502222017 61 116 0.0 3.0 0.00 0.01 0.01 46 1009.7
20260502221037 60 328 0.0 2.0 0.00 0.01 0.01 48 1009.7
20260502220017 59 71 1.0 3.0 0.00 0.01 0.01 49 1009.7
20260502215018 60 37 1.0 3.0 0.00 0.01 0.01 52 1009.8
20260502214018 60 145 1.0 4.0 0.00 0.01 0.01 51 1009.7
20260502213018 60 148 1.0 4.0 0.00 0.01 0.01 52 1009.7
20260502212015 59 49 1.0 3.0 0.00 0.01 0.01 51 1009.6
20260502211018 59 213 1.0 3.0 0.00 0.01 0.01 54 1009.6
20260502210018 59 143 1.0 3.0 0.00 0.01 0.01 56 1009.5
20260502205015 59 149 2.0 4.0 0.00 0.01 0.01 58 1009.5
20260502204016 59 180 1.0 3.0 0.00 0.01 0.01 61 1009.6
20260502203015 60 208 1.0 3.0 0.00 0.01 0.01 60 1009.7
20260502202016 61 198 1.0 3.0 0.00 0.01 0.01 53 1009.7
20260502201016 60 197 1.0 3.0 0.00 0.01 0.01 51 1009.8
20260502200056 60 152 1.0 5.0 0.00 0.01 0.01 52 1009.9
20260502195016 60 68 1.0 3.0 0.00 0.01 0.01 52 1010.1
20260502194016 60 99 1.0 4.0 0.00 0.01 0.01 53 1010.2
20260502193057 61 214 1.0 3.0 0.00 0.01 0.01 53 1010.3
20260502192017 60 222 1.0 4.0 0.00 0.01 0.01 51 1010.5
20260502191017 60 205 1.0 3.0 0.00 0.01 0.01 52 1010.6
20260502190017 60 271 1.0 4.0 0.00 0.01 0.01 53 1010.7
20260502185018 60 240 1.0 6.0 0.00 0.01 0.01 54 1010.8
20260502184017 60 333 1.0 4.0 0.00 0.01 0.01 54 1010.9
20260502182038 59 270 1.0 3.0 0.00 0.01 0.01 56 1011.0
20260502181018 59 202 0.0 2.0 0.00 0.01 0.01 59 1011.1
20260502164017 57 219 1.0 3.0 0.00 0.01 0.01 66 1011.8
20260502163016 57 224 1.0 3.0 0.00 0.01 0.01 67 1011.7
20260502162017 57 283 1.0 4.0 0.00 0.01 0.01 68 1011.7
20260502161016 56 337 0.0 3.0 0.00 0.01 0.01 70 1011.8
20260502152017 55 225 1.0 2.0 0.00 0.01 0.01 73 1011.9
20260502151017 55 4 1.0 2.0 0.00 0.01 0.01 75 1012.0
20260502123018 51 39 0.0 2.0 0.00 0.01 0.01 87 1012.2
20260502122018 51 212 0.0 1.0 0.00 0.01 0.01 89 1012.1
20260502121018 51 79 0.0 2.0 0.00 0.01 0.01 89 1012.0
20260502115016 50 129 0.0 2.0 0.00 0.01 0.01 90 1012.1
20260502114018 50 178 0.0 2.0 0.00 0.01 0.01 91 1012.2
20260502113015 50 177 0.0 1.0 0.01 0.01 0.01 92 1012.2
20260502112015 50 254 0.0 1.0 0.01 0.01 0.01 92 1012.1
20260502111036 50 180 0.0 1.0 0.01 0.01 0.01 92 1012.0
20260502110016 50 157 0.0 1.0 0.01 0.01 0.01 91 1011.7
20260502105016 50 289 0.0 1.0 0.01 0.01 0.01 91 1011.6
20260502104016 50 164 1.0 3.0 0.01 0.01 0.01 89 1011.3
20260502103017 50 150 0.0 2.0 0.00 0.00 0.00 89 1011.7
20260502102016 51 174 0.0 2.0 0.00 0.00 0.00 88 1011.5
20260502101057 51 98 0.0 1.0 0.00 0.00 0.00 85 1011.8
20260502091018 52 185 1.0 2.0 0.00 0.00 0.00 78 1011.4
20260502071017 52 144 0.0 2.0 0.00 0.00 0.00 76 1011.4
20260502070016 52 178 1.0 2.0 0.00 0.00 0.00 76 1011.5
20260502065017 51 206 0.0 2.0 0.00 0.00 0.00 76 1011.7
20260502064017 51 198 0.0 2.0 0.00 0.00 0.00 76 1011.5
20260502063017 51 180 0.0 1.0 0.00 0.00 0.00 77 1011.6
20260502062017 51 153 0.0 1.0 0.00 0.00 0.00 79 1011.8
20260502061017 51 124 0.0 1.0 0.00 0.00 0.00 78 1011.6
20260502060037 51 114 0.0 1.0 0.00 0.00 0.00 79 1011.7
20260502055017 52 159 0.0 1.0 0.00 0.00 0.00 80 1011.8
20260502054038 52 156 1.0 2.0 0.00 0.00 0.00 79 1011.9
20260502053018 52 130 0.0 1.0 0.00 0.00 0.00 80 1011.7
20260502052018 52 78 0.0 1.0 0.00 0.00 0.00 79 1011.7
20260502051018 52 185 0.0 1.0 0.00 0.00 0.00 79 1011.7